Hlavní strana
METAR-TAF:

METAR-TAF

Letiště :

Effingham County Memorial Airport

Effingham, Illinois, Spojené státy americké

zeměpisná šířka: 39-04-14N, zeměpisná délka: 088-32-00W, výška: 179 m

Aktuální stav počasí

Zpráva byla vytvořena před 28 minutami, v 03:15 UTC
Západní vítr 3 kt
Teplota 6°C
Vlhkost vzduchu 65%
Tlak 1022 hPa
Viditelnost: 16.1 km
Zataženo ve výšce 9000 ft

METAR: K1H2 220315Z AUTO 27003KT 10SM OVC090 06/00 A3017 RMK AO2 T00570003

Čas: 22:43 (03:43 UTC)


TAF: chybějící

Stav a předpovědi počasí z více než 4 000 letišť (zprávy METAR a TAF).

Červené a žluté tečky na mapě představují dostupné meteorologické stanice.

Když kurzor umístíte na tečku, zobrazí se název stanice.

Pak kliknutím zobrazíte stav a předpověď počasí.

Chcete-li změnit mapu, kliknutím na zelené tlačítko se znaménkem +mapu přiblížíte, kliknutím na zelené tlačítko se znaménkem – mapu oddálíte a kliknutím na zelené šipky přejdete na sousední mapy.


METAR-TAF: